Year,Month,Day,Hour,Minute,Value (Times are PST for temperature in C)
2013,07,18,09,47,18.30
2013,07,18,09,48,18.30
2013,07,18,09,49,18.30
2013,07,18,09,50,18.40
2013,07,18,09,51,18.40
2013,07,18,09,52,18.50
2013,07,18,09,53,18.50
2013,07,18,09,54,18.50
2013,07,18,09,55,18.50
2013,07,18,09,56,18.60
2013,07,18,09,57,18.60
2013,07,18,09,58,18.70
2013,07,18,09,59,18.70
2013,07,18,10,00,18.80
2013,07,18,10,01,18.90
2013,07,18,10,02,19.00
2013,07,18,10,03,19.00
2013,07,18,10,04,19.10
2013,07,18,10,05,19.10
2013,07,18,10,06,19.10
2013,07,18,10,07,19.10
2013,07,18,10,08,19.10
2013,07,18,10,09,19.10
2013,07,18,10,10,19.20
2013,07,18,10,11,19.20
2013,07,18,10,12,19.20
2013,07,18,10,13,19.20
2013,07,18,10,14,19.20
2013,07,18,10,15,19.20
2013,07,18,10,16,19.20
2013,07,18,10,17,19.30
2013,07,18,10,18,19.30
2013,07,18,10,19,19.40
2013,07,18,10,20,19.50
2013,07,18,10,21,19.60
2013,07,18,10,22,19.70
2013,07,18,10,23,19.80
2013,07,18,10,24,19.90
2013,07,18,10,25,19.90
2013,07,18,10,26,19.90
2013,07,18,10,27,19.90
2013,07,18,10,28,19.70
2013,07,18,10,29,19.50
2013,07,18,10,30,19.40
2013,07,18,10,31,19.30
2013,07,18,10,32,19.20
2013,07,18,10,33,19.10
2013,07,18,10,34,19.10
2013,07,18,10,35,19.00
2013,07,18,10,36,19.00
2013,07,18,10,37,19.10
2013,07,18,10,38,19.20
2013,07,18,10,39,19.20
2013,07,18,10,40,19.20
2013,07,18,10,41,19.10
2013,07,18,10,42,19.10
2013,07,18,10,43,19.20
2013,07,18,10,44,19.30
2013,07,18,10,45,19.30
2013,07,18,10,46,19.30
2013,07,18,10,47,19.40
2013,07,18,10,48,19.50
2013,07,18,10,49,19.60
2013,07,18,10,50,19.60
2013,07,18,10,51,19.60
2013,07,18,10,52,19.50
2013,07,18,10,53,19.40
2013,07,18,10,54,19.40
2013,07,18,10,55,19.40
2013,07,18,10,56,19.40
2013,07,18,10,57,19.50
2013,07,18,10,58,19.50
2013,07,18,10,59,19.50
2013,07,18,11,00,19.50
2013,07,18,11,01,19.60
2013,07,18,11,02,19.60
2013,07,18,11,03,19.60
2013,07,18,11,04,19.70
2013,07,18,11,05,19.90
2013,07,18,11,06,20.00
2013,07,18,11,07,20.10
2013,07,18,11,08,20.20
2013,07,18,11,09,20.30
2013,07,18,11,10,20.20
2013,07,18,11,11,20.20
2013,07,18,11,12,20.20
2013,07,18,11,13,20.20
2013,07,18,11,14,20.20
2013,07,18,11,15,20.20
2013,07,18,11,16,20.20
2013,07,18,11,17,20.00
2013,07,18,11,18,20.00
2013,07,18,11,19,19.90
2013,07,18,11,20,19.90
2013,07,18,11,21,19.90
2013,07,18,11,22,19.90
2013,07,18,11,23,20.00
2013,07,18,11,24,20.00
2013,07,18,11,25,20.00
2013,07,18,11,26,20.00
2013,07,18,11,27,20.00
2013,07,18,11,28,20.00
2013,07,18,11,29,20.10
2013,07,18,11,30,20.30
2013,07,18,11,31,20.30
2013,07,18,11,32,20.30
2013,07,18,11,33,20.20
2013,07,18,11,34,20.00
2013,07,18,11,35,19.90
2013,07,18,11,36,19.90
2013,07,18,11,37,19.90
2013,07,18,11,38,19.90
2013,07,18,11,39,20.10
2013,07,18,11,40,20.30
2013,07,18,11,41,20.40
2013,07,18,11,42,20.50
2013,07,18,11,43,20.60
2013,07,18,11,44,20.60
2013,07,18,11,45,20.50
2013,07,18,11,46,20.40
2013,07,18,11,47,20.40
2013,07,18,11,48,20.30
2013,07,18,11,49,20.20
2013,07,18,11,50,20.10
2013,07,18,11,51,20.00
2013,07,18,11,52,20.00
2013,07,18,11,53,19.90
2013,07,18,11,54,19.90
2013,07,18,11,55,19.90
2013,07,18,11,56,20.00
2013,07,18,11,57,20.00
2013,07,18,11,58,20.10
2013,07,18,11,59,20.30
2013,07,18,12,00,20.50
2013,07,18,12,01,20.60
2013,07,18,12,02,20.70
2013,07,18,12,03,20.60
2013,07,18,12,04,20.60
2013,07,18,12,05,20.50
2013,07,18,12,06,20.40
2013,07,18,12,07,20.40
2013,07,18,12,08,20.50
2013,07,18,12,09,20.50
2013,07,18,12,10,20.50
2013,07,18,12,11,20.40
2013,07,18,12,12,20.40
2013,07,18,12,13,20.30
2013,07,18,12,14,20.30
2013,07,18,12,15,20.30
2013,07,18,12,16,20.30
2013,07,18,12,17,20.40
2013,07,18,12,18,20.40
2013,07,18,12,19,20.40
2013,07,18,12,20,20.40
2013,07,18,12,21,20.40
2013,07,18,12,22,20.40
2013,07,18,12,23,20.50
2013,07,18,12,24,20.50
2013,07,18,12,25,20.50
2013,07,18,12,26,20.50
2013,07,18,12,27,20.60
2013,07,18,12,28,20.50
2013,07,18,12,29,20.40
2013,07,18,12,30,20.30
2013,07,18,12,31,20.30
2013,07,18,12,32,20.30
2013,07,18,12,33,20.20
2013,07,18,12,34,20.10
2013,07,18,12,35,20.20
2013,07,18,12,36,20.20
2013,07,18,12,37,20.20
2013,07,18,12,38,20.20
2013,07,18,12,39,20.30
2013,07,18,12,40,20.30
2013,07,18,12,41,20.30
2013,07,18,12,42,20.40
2013,07,18,12,43,20.50
2013,07,18,12,44,20.60
2013,07,18,12,45,20.60
2013,07,18,12,46,20.70
2013,07,18,12,47,20.70
2013,07,18,12,48,20.80
2013,07,18,12,49,20.80
2013,07,18,12,50,20.90
2013,07,18,12,51,20.90
2013,07,18,12,52,20.80
2013,07,18,12,53,20.70
2013,07,18,12,54,20.70
2013,07,18,12,55,20.70
2013,07,18,12,56,20.70
2013,07,18,12,57,20.60
2013,07,18,12,58,20.50
2013,07,18,12,59,20.40
2013,07,18,13,00,20.40
2013,07,18,13,01,20.40
2013,07,18,13,02,20.50
2013,07,18,13,03,20.60
2013,07,18,13,04,20.70
2013,07,18,13,05,20.80
2013,07,18,13,06,21.00
2013,07,18,13,07,20.90
2013,07,18,13,08,20.90
2013,07,18,13,09,20.90
2013,07,18,13,10,20.90
2013,07,18,13,11,20.90
2013,07,18,13,12,20.90
2013,07,18,13,13,21.00
2013,07,18,13,14,21.00
2013,07,18,13,15,21.10
2013,07,18,13,16,21.20
2013,07,18,13,17,21.20
2013,07,18,13,18,21.20
2013,07,18,13,19,21.20
2013,07,18,13,20,21.00
2013,07,18,13,21,21.10
2013,07,18,13,22,21.10
2013,07,18,13,23,21.10
2013,07,18,13,24,21.20
2013,07,18,13,25,21.20
2013,07,18,13,26,21.30
2013,07,18,13,27,21.30
2013,07,18,13,28,21.30
2013,07,18,13,29,21.30
2013,07,18,13,30,21.30
2013,07,18,13,31,21.40
2013,07,18,13,32,21.50
2013,07,18,13,33,21.60
2013,07,18,13,34,21.60
2013,07,18,13,35,21.60
2013,07,18,13,36,21.70
2013,07,18,13,37,21.80
2013,07,18,13,38,21.80
2013,07,18,13,39,21.80
2013,07,18,13,40,21.80
2013,07,18,13,41,21.80
2013,07,18,13,42,21.80
2013,07,18,13,43,21.80
2013,07,18,13,44,21.80
2013,07,18,13,45,21.80
2013,07,18,13,46,21.80
2013,07,18,13,47,21.80
2013,07,18,13,48,21.90
2013,07,18,13,49,22.00
2013,07,18,13,50,22.10
2013,07,18,13,51,22.10
2013,07,18,13,52,22.10
2013,07,18,13,53,22.00
2013,07,18,13,54,22.00
2013,07,18,13,55,21.90
2013,07,18,13,56,21.90
2013,07,18,13,57,21.90
2013,07,18,13,58,21.80
2013,07,18,13,59,21.80
2013,07,18,14,00,21.80
2013,07,18,14,01,21.80
2013,07,18,14,02,21.90
2013,07,18,14,03,22.00
2013,07,18,14,04,22.10
2013,07,18,14,05,22.10
2013,07,18,14,06,22.10
2013,07,18,14,07,22.20
2013,07,18,14,08,22.20
2013,07,18,14,09,22.20
2013,07,18,14,10,22.10
2013,07,18,14,11,22.10
2013,07,18,14,12,22.10
2013,07,18,14,13,22.10
2013,07,18,14,14,22.00
2013,07,18,14,15,21.80
2013,07,18,14,16,21.80
2013,07,18,14,17,21.80
2013,07,18,14,18,21.90
2013,07,18,14,19,22.00
2013,07,18,14,20,22.20
2013,07,18,14,21,22.30
2013,07,18,14,22,22.50
2013,07,18,14,23,22.60
2013,07,18,14,24,22.70
2013,07,18,14,25,22.70
2013,07,18,14,26,22.70
2013,07,18,14,27,22.70
2013,07,18,14,28,22.70
2013,07,18,14,29,22.80
2013,07,18,14,30,22.80
2013,07,18,14,31,22.80
2013,07,18,14,32,22.80
2013,07,18,14,33,22.80
2013,07,18,14,34,22.80
2013,07,18,14,35,22.80
2013,07,18,14,36,22.80
2013,07,18,14,37,22.80
2013,07,18,14,38,22.70
2013,07,18,14,39,22.70
2013,07,18,14,40,22.70
2013,07,18,14,41,22.60
2013,07,18,14,42,22.60
2013,07,18,14,43,22.70
2013,07,18,14,44,22.70
2013,07,18,14,45,22.90
2013,07,18,14,46,22.90
2013,07,18,14,47,23.00
2013,07,18,14,48,23.10
2013,07,18,14,49,23.10
2013,07,18,14,50,23.00
2013,07,18,14,51,22.90
2013,07,18,14,52,22.80
2013,07,18,14,53,22.70
2013,07,18,14,54,22.60
2013,07,18,14,55,22.60
2013,07,18,14,56,22.60
2013,07,18,14,57,22.60
2013,07,18,14,58,22.70
2013,07,18,14,59,22.80
2013,07,18,15,00,22.90
2013,07,18,15,01,23.00
2013,07,18,15,02,23.00
2013,07,18,15,03,23.00
2013,07,18,15,04,23.10
2013,07,18,15,05,23.10
2013,07,18,15,06,23.20
2013,07,18,15,07,23.30
2013,07,18,15,08,23.30
2013,07,18,15,09,23.20
2013,07,18,15,10,23.30
2013,07,18,15,11,23.20
2013,07,18,15,12,23.30
2013,07,18,15,13,23.40
2013,07,18,15,14,23.50
2013,07,18,15,15,23.50
2013,07,18,15,16,23.50
2013,07,18,15,17,23.50
2013,07,18,15,18,23.60
2013,07,18,15,19,23.60
2013,07,18,15,20,23.60
2013,07,18,15,21,23.70
2013,07,18,15,22,23.80
2013,07,18,15,23,23.80
2013,07,18,15,24,23.70
2013,07,18,15,25,23.60
2013,07,18,15,26,23.60
2013,07,18,15,27,23.50
2013,07,18,15,28,23.50
2013,07,18,15,29,23.50
2013,07,18,15,30,23.50
2013,07,18,15,31,23.40
2013,07,18,15,32,23.40
2013,07,18,15,33,23.30
2013,07,18,15,34,23.20
2013,07,18,15,35,23.20
2013,07,18,15,36,23.20
2013,07,18,15,37,23.30
2013,07,18,15,38,23.40
2013,07,18,15,39,23.40
2013,07,18,15,40,23.40
2013,07,18,15,41,23.40
2013,07,18,15,42,23.40
2013,07,18,15,43,23.30
2013,07,18,15,44,23.30
2013,07,18,15,45,23.30
2013,07,18,15,46,23.30
2013,07,18,15,47,23.30
2013,07,18,15,48,23.40
2013,07,18,15,49,23.40
2013,07,18,15,50,23.40
2013,07,18,15,51,23.40
2013,07,18,15,52,23.60
2013,07,18,15,53,23.60
2013,07,18,15,54,23.60
2013,07,18,15,55,23.70
2013,07,18,15,56,23.60
2013,07,18,15,57,23.60
2013,07,18,15,58,23.70
2013,07,18,15,59,23.70
2013,07,18,16,00,23.60
2013,07,18,16,01,23.60
2013,07,18,16,02,23.70
2013,07,18,16,03,23.70
2013,07,18,16,04,23.80
2013,07,18,16,05,23.90
2013,07,18,16,06,23.90
2013,07,18,16,07,24.00
2013,07,18,16,08,24.10
2013,07,18,16,09,24.10
2013,07,18,16,10,24.20
2013,07,18,16,11,24.20
2013,07,18,16,12,24.30
2013,07,18,16,13,24.40
2013,07,18,16,14,24.40
2013,07,18,16,15,24.40
2013,07,18,16,16,24.40
2013,07,18,16,17,24.40
2013,07,18,16,18,24.40
2013,07,18,16,19,24.40
2013,07,18,16,20,24.40
2013,07,18,16,21,24.50
2013,07,18,16,22,24.60
2013,07,18,16,23,24.60
2013,07,18,16,24,24.70
2013,07,18,16,25,24.70
2013,07,18,16,26,24.70
2013,07,18,16,27,24.60
2013,07,18,16,28,24.50
2013,07,18,16,29,24.40
2013,07,18,16,30,24.40
2013,07,18,16,31,24.40
2013,07,18,16,32,24.40
2013,07,18,16,33,24.40
2013,07,18,16,34,24.40
2013,07,18,16,35,24.30
2013,07,18,16,36,24.30
2013,07,18,16,37,24.30
2013,07,18,16,38,24.40
2013,07,18,16,39,24.40
2013,07,18,16,40,24.50
2013,07,18,16,41,24.60
2013,07,18,16,42,24.70
2013,07,18,16,43,24.80
2013,07,18,16,44,24.90
2013,07,18,16,45,25.00
2013,07,18,16,46,25.00
2013,07,18,16,47,25.00
2013,07,18,16,48,25.00
2013,07,18,16,49,25.10
2013,07,18,16,50,25.10
2013,07,18,16,51,25.10
2013,07,18,16,52,25.10
2013,07,18,16,53,25.10
2013,07,18,16,54,25.00
2013,07,18,16,55,24.90
2013,07,18,16,56,24.90
2013,07,18,16,57,24.80
2013,07,18,16,58,24.80
2013,07,18,16,59,24.90
2013,07,18,17,00,24.90
2013,07,18,17,01,24.90
2013,07,18,17,02,25.00
2013,07,18,17,03,24.90
2013,07,18,17,04,24.90
2013,07,18,17,05,24.80
2013,07,18,17,06,24.80
2013,07,18,17,07,24.70
2013,07,18,17,08,24.70
2013,07,18,17,09,24.70
2013,07,18,17,10,24.70
2013,07,18,17,11,24.60
2013,07,18,17,12,24.60
2013,07,18,17,13,24.60
2013,07,18,17,14,24.70
2013,07,18,17,15,24.70
2013,07,18,17,16,24.80
2013,07,18,17,17,24.90
2013,07,18,17,18,25.00
2013,07,18,17,19,25.00
2013,07,18,17,20,25.00
2013,07,18,17,21,25.10
2013,07,18,17,22,25.10
2013,07,18,17,23,25.20
2013,07,18,17,24,25.20
2013,07,18,17,25,25.30
2013,07,18,17,26,25.30
2013,07,18,17,27,25.20
2013,07,18,17,28,25.00
2013,07,18,17,29,24.80
2013,07,18,17,30,24.70
2013,07,18,17,31,24.70
2013,07,18,17,32,24.70
2013,07,18,17,33,24.60
2013,07,18,17,34,24.60
2013,07,18,17,35,24.50
2013,07,18,17,36,24.30
2013,07,18,17,37,24.20
2013,07,18,17,38,24.20
2013,07,18,17,39,24.10
2013,07,18,17,40,24.20
2013,07,18,17,41,24.20
2013,07,18,17,42,24.30
2013,07,18,17,43,24.40
2013,07,18,17,44,24.40
2013,07,18,17,45,24.40
2013,07,18,17,46,24.30
2013,07,18,17,47,24.20
2013,07,18,17,48,24.20
2013,07,18,17,49,24.30
2013,07,18,17,50,24.30
2013,07,18,17,51,24.30
2013,07,18,17,52,24.40
2013,07,18,17,53,24.40
2013,07,18,17,54,24.50
2013,07,18,17,55,24.50
2013,07,18,17,56,24.50
2013,07,18,17,57,24.50
2013,07,18,17,58,24.40
2013,07,18,17,59,24.30
2013,07,18,18,00,24.20
2013,07,18,18,01,24.20
2013,07,18,18,02,24.10
2013,07,18,18,03,24.10
2013,07,18,18,04,24.10
2013,07,18,18,05,24.10
2013,07,18,18,06,24.10
2013,07,18,18,07,24.10
2013,07,18,18,08,24.10
2013,07,18,18,09,24.10
2013,07,18,18,10,24.10
2013,07,18,18,11,24.10
2013,07,18,18,12,24.10
2013,07,18,18,13,24.20
2013,07,18,18,14,24.20
2013,07,18,18,15,24.30
2013,07,18,18,16,24.30
2013,07,18,18,17,24.30
2013,07,18,18,18,24.30
2013,07,18,18,19,24.30
2013,07,18,18,20,24.30
2013,07,18,18,21,24.30
2013,07,18,18,22,24.30
2013,07,18,18,23,24.30
2013,07,18,18,24,24.30
2013,07,18,18,25,24.40
2013,07,18,18,26,24.40
2013,07,18,18,27,24.40
2013,07,18,18,28,24.40
2013,07,18,18,29,24.40
2013,07,18,18,30,24.40
2013,07,18,18,31,24.40
2013,07,18,18,32,24.30
2013,07,18,18,33,24.30
2013,07,18,18,34,24.30
2013,07,18,18,35,24.20
2013,07,18,18,36,24.20
2013,07,18,18,37,24.30
2013,07,18,18,38,24.30
2013,07,18,18,39,24.30
2013,07,18,18,40,24.40
2013,07,18,18,41,24.40
2013,07,18,18,42,24.40
2013,07,18,18,43,24.40
2013,07,18,18,44,24.40
2013,07,18,18,45,24.40
2013,07,18,18,46,24.40
2013,07,18,18,47,24.40
2013,07,18,18,48,24.40
2013,07,18,18,49,24.40
2013,07,18,18,50,24.40
